Domov               UVHVVR             MKGP            O straneh              
ZDRAVSTVENO VARSTVO RASTLIN
  MREŽA AGROMET. POSTAJ
 ► PROGNOSTIČNA OBVESTILA
AGROMETEOROLOŠKI PODATKI -
ARSO
OBVLADOVANJE TVEGANJ ZARADI
NEUGODNIH VREMENSKIH RAZMER
  ► NARAVNE NESREČE
  ► SUŠA/MOČA
  ► NAMAKANJE
  ► ŽLED (gozdarstvo)
KARTOGRAFSKI PRIKAZI
SPLETNE POVEZAVE
PROJEKTI IN PUBLIKACIJE

AGROMETEOROLOŠKA MREŽA: VREMENSKE POSTAJE IN FENOLOŠKA OPAZOVANJA

Pregled podatkov za lokacijo Pradisiol, meteorološka postaja 861649

Pregled senzorjev na lokaciji

ID Ime Zadnja
vrednost
Datum
zadnje
spremembe
Tip
senzorja
4076 Omočenost lista (U) 0 U 19.2.2018 06:30 A730WET
4077 Padavine (mm) 0 mm 19.2.2018 06:30 Rain-O-Matic
4075 Relativna vlaga 2 m (% RH) 64,68 % RH 19.2.2018 06:30 50YA
4074 Temperatura 2 m (°C) 3,51 °C 19.2.2018 06:30 50YA

Pregled podatkov zadnjih 24 ur

Zap.
št.
Datum in čas Pradisiol
Omočenost
lista
Padavine Relativna
vlaga
2
m
Temperatura
2
m
1 19.2.2018 07:00
2 19.2.2018 06:30 0 0 64,7 3,5
3 19.2.2018 06:00 0 0 62,9 3,7
4 19.2.2018 05:30 0 0 62 3,8
5 19.2.2018 05:00 0 0 61,4 4
6 19.2.2018 04:30 0 0 60,2 4,2
7 19.2.2018 04:00 0 0 60,7 4,3
8 19.2.2018 03:30 0 0 60,8 4,4
9 19.2.2018 03:00 0 0 60,6 4,5
10 19.2.2018 02:30 0 0 60,8 4,6
11 19.2.2018 02:00 0 0 61,3 4,7
12 19.2.2018 01:30 0 0 63,2 4,6
13 19.2.2018 01:00 0 0 62 4,9
14 19.2.2018 00:30 0 0 60 5,1
15 19.2.2018 00:00 0 0 60,6 5,2
16 18.2.2018 23:30 0 0 60,4 5,3
17 18.2.2018 23:00 0 0 59,2 5,5
18 18.2.2018 22:30 0 0 58,7 5,6
19 18.2.2018 22:00 0 0 58,3 5,7
20 18.2.2018 21:30 0 0 58,6 5,7
21 18.2.2018 21:00 0 0 58,8 5,7
22 18.2.2018 20:30 0 0 58,7 5,7
23 18.2.2018 20:00 0 0 58,8 5,8
24 18.2.2018 19:30 0 0 59,5 5,8
25 18.2.2018 19:00 0 0 59,9 5,9
26 18.2.2018 18:30 0 0 60,4 5,8
27 18.2.2018 18:00 0 0 60,9 5,8
28 18.2.2018 17:30 0 0 61,8 5,8
29 18.2.2018 17:00 0 0 60,1 6
30 18.2.2018 16:30 0 0 61,9 5,9
31 18.2.2018 16:00 0 0 62,7 6
32 18.2.2018 15:30 0 0 62,7 6
33 18.2.2018 15:00 0 0 64,8 5,8
34 18.2.2018 14:30 0 0 67,1 5,6
35 18.2.2018 14:00 0 0 69,1 5,6
36 18.2.2018 13:30 0 0 69,1 5,6
37 18.2.2018 13:00 0 0 70,7 5,6
38 18.2.2018 12:30 9 0 69,8 5,9
39 18.2.2018 12:00 9 0 68,1 6,3
40 18.2.2018 11:30 9 0 66,8 6,4
41 18.2.2018 11:00 9 0 68,3 6,4
42 18.2.2018 10:30 4 0 69,6 6,4
43 18.2.2018 10:00 4 0,2 72,5 6,5
44 18.2.2018 09:30 3 0 76 6,8
45 18.2.2018 09:00 3 0,2 79,5 6,6
46 18.2.2018 08:30 4 0,4 85,7 6,3
47 18.2.2018 08:00 3 0,4 94,8 6,1
48 18.2.2018 07:30 4 1,4 99,5 5,8
© 2011 Ministrstvo za kmetijstvo, gozdarstvo in prehrano. Vse pravice pridržane.